Precipitable_Water
0.58 0.56 0.56 0.56 0.56 0.56 0.56 0.56 0.56 0.56 0.56 0.54 0.54 0.54 0.54 0.54 0.52 0.52 0.54 0.54 0.54 0.54 0.54 0.54 0.54 0.54 0.54 0.54 0.54 0.54 0.54 0.54 0.56 0.58 0.60 0.62 0.64 0.62 0.62 0.62 0.60 0.60 0.58 0.58 0.56 0.56 0.54 0.52 0.50 0.46 0.44 0.42 0.42 0.40 0.38 0.38 0.38 0.38 0.36 0.36 0.34 0.32 0.32 0.32 0.32 0.30 0.30 0.30 0.30
0.58 0.56 0.56 0.56 0.56 0.56 0.56 0.56 0.56 0.56 0.56 0.56 0.56 0.54 0.54 0.54 0.54 0.54 0.54 0.54 0.54 0.54 0.54 0.54 0.54 0.54 0.54 0.54 0.54 0.56 0.56 0.58 0.60 0.60 0.62 0.64 0.64 0.64 0.62 0.62 0.62 0.60 0.58 0.58 0.56 0.54 0.52 0.50 0.46 0.42 0.42 0.40 0.40 0.38 0.38 0.38 0.36 0.36 0.34 0.34 0.32 0.32 0.32 0.30 0.30 0.30 0.30 0.30 0.30
0.58 0.56 0.56 0.56 0.56 0.54 0.54 0.54 0.54 0.56 0.56 0.56 0.56 0.56 0.54 0.54 0.54 0.54 0.52 0.52 0.52 0.54 0.54 0.54 0.54 0.54 0.54 0.56 0.56 0.58 0.60 0.62 0.62 0.64 0.64 0.64 0.64 0.64 0.64 0.62 0.62 0.60 0.58 0.56 0.54 0.52 0.50 0.48 0.42 0.40 0.40 0.38 0.38 0.36 0.36 0.36 0.34 0.34 0.34 0.32 0.32 0.32 0.30 0.30 0.30 0.30 0.30 0.30 0.30
0.58 0.56 0.56 0.54 0.54 0.54 0.54 0.54 0.54 0.54 0.56 0.56 0.56 0.56 0.56 0.54 0.54 0.54 0.52 0.52 0.54 0.54 0.54 0.54 0.56 0.56 0.56 0.58 0.60 0.62 0.64 0.64 0.66 0.66 0.66 0.66 0.64 0.64 0.62 0.62 0.60 0.58 0.56 0.52 0.50 0.48 0.46 0.42 0.42 0.40 0.38 0.38 0.36 0.36 0.34 0.34 0.34 0.34 0.32 0.32 0.32 0.32 0.32 0.30 0.30 0.30 0.30 0.30 0.30
0.58 0.56 0.56 0.54 0.54 0.54 0.54 0.54 0.54 0.54 0.54 0.56 0.56 0.54 0.54 0.54 0.54 0.54 0.54 0.54 0.54 0.54 0.56 0.56 0.58 0.58 0.60 0.60 0.62 0.64 0.66 0.66 0.66 0.66 0.66 0.64 0.62 0.62 0.60 0.58 0.56 0.54 0.52 0.48 0.46 0.44 0.44 0.42 0.40 0.38 0.38 0.36 0.36 0.36 0.34 0.34 0.34 0.34 0.32 0.32 0.32 0.32 0.32 0.32 0.30 0.30 0.30 0.30 0.30
0.56 0.56 0.56 0.54 0.54 0.54 0.54 0.54 0.54 0.54 0.54 0.54 0.54 0.54 0.54 0.54 0.54 0.54 0.54 0.54 0.56 0.56 0.58 0.60 0.60 0.60 0.62 0.62 0.64 0.64 0.66 0.66 0.66 0.64 0.64 0.62 0.60 0.58 0.54 0.52 0.50 0.50 0.48 0.46 0.44 0.42 0.40 0.40 0.38 0.38 0.38 0.36 0.36 0.36 0.34 0.34 0.34 0.34 0.32 0.32 0.32 0.32 0.32 0.30 0.30 0.30 0.30 0.30 0.28
0.56 0.56 0.56 0.54 0.54 0.54 0.54 0.54 0.54 0.54 0.54 0.54 0.52 0.52 0.52 0.54 0.54 0.56 0.56 0.56 0.58 0.58 0.60 0.60 0.62 0.62 0.64 0.64 0.64 0.64 0.64 0.64 0.64 0.62 0.62 0.60 0.58 0.54 0.50 0.48 0.46 0.46 0.44 0.44 0.42 0.40 0.40 0.40 0.38 0.38 0.38 0.36 0.36 0.36 0.34 0.34 0.34 0.32 0.32 0.30 0.30 0.30 0.30 0.30 0.30 0.30 0.30 0.30 0.28
0.56 0.56 0.54 0.54 0.54 0.54 0.54 0.54 0.54 0.54 0.52 0.52 0.52 0.52 0.52 0.54 0.54 0.56 0.58 0.58 0.60 0.60 0.60 0.62 0.62 0.64 0.64 0.64 0.64 0.64 0.64 0.62 0.62 0.60 0.58 0.56 0.52 0.50 0.46 0.44 0.44 0.42 0.42 0.42 0.42 0.40 0.40 0.40 0.38 0.38 0.36 0.36 0.34 0.34 0.34 0.34 0.32 0.32 0.30 0.30 0.30 0.30 0.30 0.30 0.30 0.30 0.30 0.28 0.28
0.52 0.52 0.52 0.54 0.54 0.52 0.52 0.52 0.52 0.52 0.52 0.52 0.52 0.52 0.54 0.54 0.56 0.56 0.58 0.58 0.58 0.60 0.62 0.62 0.64 0.64 0.64 0.64 0.64 0.64 0.62 0.60 0.58 0.56 0.54 0.52 0.50 0.46 0.44 0.44 0.42 0.42 0.42 0.42 0.42 0.40 0.40 0.38 0.38 0.36 0.36 0.34 0.34 0.32 0.32 0.32 0.30 0.30 0.28 0.28 0.28 0.28 0.28 0.28 0.28 0.28 0.28 0.26 0.26
0.50 0.50 0.52 0.52 0.52 0.52 0.52 0.52 0.52 0.52 0.52 0.52 0.52 0.54 0.54 0.54 0.56 0.56 0.58 0.58 0.60 0.60 0.60 0.62 0.64 0.64 0.64 0.62 0.62 0.60 0.58 0.56 0.54 0.50 0.48 0.48 0.46 0.44 0.44 0.42 0.42 0.42 0.42 0.42 0.40 0.38 0.36 0.36 0.34 0.34 0.32 0.32 0.32 0.30 0.30 0.30 0.28 0.26 0.26 0.26 0.26 0.26 0.26 0.26 0.26 0.26 0.24 0.24 0.24
0.50 0.50 0.50 0.50 0.50 0.50 0.50 0.52 0.52 0.52 0.52 0.52 0.52 0.54 0.54 0.54 0.56 0.56 0.58 0.58 0.58 0.60 0.60 0.62 0.62 0.62 0.60 0.60 0.58 0.58 0.56 0.54 0.50 0.46 0.46 0.44 0.44 0.42 0.42 0.42 0.42 0.42 0.40 0.38 0.36 0.36 0.34 0.32 0.32 0.32 0.30 0.30 0.30 0.30 0.28 0.28 0.26 0.26 0.24 0.24 0.24 0.24 0.24 0.24 0.24 0.24 0.24 0.22 0.22
0.50 0.50 0.50 0.50 0.50 0.50 0.50 0.50 0.50 0.50 0.50 0.52 0.52 0.52 0.54 0.54 0.54 0.56 0.56 0.58 0.58 0.60 0.60 0.62 0.60 0.58 0.58 0.56 0.54 0.52 0.50 0.48 0.46 0.44 0.42 0.42 0.40 0.40 0.40 0.40 0.40 0.38 0.38 0.36 0.36 0.36 0.34 0.32 0.30 0.30 0.30 0.28 0.28 0.28 0.28 0.26 0.24 0.24 0.24 0.24 0.22 0.22 0.22 0.22 0.22 0.22 0.22 0.22 0.22
0.48 0.48 0.48 0.48 0.48 0.48 0.48 0.48 0.48 0.50 0.50 0.50 0.50 0.52 0.52 0.52 0.54 0.54 0.56 0.56 0.58 0.58 0.58 0.58 0.58 0.56 0.54 0.52 0.50 0.48 0.48 0.46 0.44 0.42 0.40 0.40 0.40 0.40 0.40 0.40 0.38 0.38 0.36 0.36 0.36 0.34 0.34 0.32 0.30 0.30 0.28 0.28 0.28 0.26 0.26 0.24 0.24 0.22 0.22 0.22 0.22 0.22 0.22 0.22 0.22 0.22 0.22 0.22 0.22
0.48 0.48 0.48 0.48 0.48 0.48 0.48 0.48 0.48 0.48 0.48 0.48 0.50 0.50 0.52 0.52 0.52 0.54 0.56 0.56 0.56 0.56 0.56 0.54 0.54 0.52 0.50 0.48 0.48 0.46 0.44 0.44 0.42 0.42 0.40 0.40 0.40 0.40 0.40 0.40 0.38 0.38 0.36 0.36 0.34 0.34 0.32 0.32 0.30 0.30 0.28 0.26 0.26 0.26 0.26 0.24 0.24 0.22 0.22 0.22 0.22 0.22 0.22 0.22 0.22 0.22 0.22 0.22 0.22
0.48 0.48 0.48 0.48 0.48 0.48 0.48 0.48 0.46 0.48 0.48 0.48 0.48 0.50 0.50 0.52 0.52 0.54 0.54 0.54 0.54 0.54 0.52 0.52 0.50 0.50 0.48 0.46 0.46 0.44 0.44 0.42 0.42 0.42 0.40 0.40 0.40 0.40 0.40 0.40 0.38 0.38 0.36 0.36 0.34 0.34 0.32 0.32 0.30 0.28 0.28 0.26 0.26 0.24 0.24 0.24 0.24 0.22 0.22 0.22 0.22 0.22 0.22 0.22 0.22 0.22 0.22 0.22 0.22
0.46 0.46 0.46 0.46 0.46 0.46 0.46 0.46 0.46 0.46 0.46 0.48 0.48 0.50 0.50 0.52 0.52 0.52 0.52 0.52 0.52 0.52 0.50 0.50 0.48 0.48 0.46 0.44 0.44 0.44 0.42 0.42 0.42 0.42 0.42 0.40 0.40 0.40 0.40 0.38 0.38 0.38 0.36 0.34 0.34 0.32 0.32 0.30 0.30 0.28 0.28 0.26 0.24 0.24 0.24 0.24 0.24 0.24 0.22 0.22 0.22 0.22 0.22 0.22 0.22 0.22 0.22 0.22 0.22
0.46 0.46 0.46 0.46 0.46 0.46 0.46 0.46 0.46 0.46 0.46 0.48 0.48 0.50 0.50 0.52 0.52 0.52 0.52 0.50 0.50 0.50 0.48 0.48 0.46 0.46 0.44 0.44 0.44 0.42 0.42 0.42 0.42 0.42 0.42 0.40 0.40 0.40 0.40 0.38 0.38 0.38 0.36 0.34 0.32 0.32 0.30 0.28 0.28 0.28 0.26 0.26 0.24 0.24 0.24 0.24 0.24 0.22 0.22 0.22 0.22 0.22 0.22 0.22 0.22 0.22 0.22 0.22 0.22
0.44 0.46 0.46 0.46 0.46 0.46 0.46 0.44 0.46 0.46 0.46 0.48 0.48 0.50 0.50 0.50 0.50 0.50 0.50 0.50 0.48 0.48 0.46 0.46 0.44 0.44 0.44 0.42 0.42 0.42 0.42 0.42 0.42 0.42 0.42 0.40 0.40 0.40 0.38 0.38 0.38 0.36 0.36 0.34 0.30 0.30 0.28 0.28 0.26 0.26 0.26 0.26 0.24 0.24 0.24 0.24 0.22 0.22 0.22 0.22 0.22 0.22 0.22 0.22 0.22 0.22 0.22 0.22 0.22
0.44 0.44 0.44 0.44 0.44 0.44 0.44 0.44 0.46 0.46 0.46 0.48 0.48 0.50 0.50 0.50 0.50 0.48 0.48 0.48 0.46 0.46 0.44 0.44 0.44 0.42 0.42 0.42 0.42 0.42 0.42 0.42 0.42 0.42 0.42 0.40 0.40 0.38 0.38 0.36 0.36 0.34 0.34 0.32 0.30 0.28 0.26 0.26 0.26 0.26 0.24 0.24 0.24 0.24 0.24 0.22 0.22 0.22 0.22 0.22 0.22 0.22 0.22 0.22 0.22 0.22 0.22 0.22 0.22
0.44 0.44 0.44 0.44 0.44 0.44 0.44 0.44 0.46 0.46 0.48 0.48 0.48 0.48 0.48 0.48 0.48 0.46 0.46 0.46 0.46 0.46 0.44 0.44 0.44 0.42 0.42 0.44 0.44 0.44 0.44 0.42 0.42 0.42 0.40 0.40 0.38 0.36 0.36 0.34 0.34 0.32 0.30 0.30 0.28 0.26 0.26 0.26 0.26 0.24 0.24 0.24 0.24 0.24 0.24 0.22 0.22 0.22 0.22 0.22 0.22 0.22 0.22 0.24 0.24 0.24 0.24 0.24 0.24
0.44 0.44 0.44 0.44 0.44 0.44 0.44 0.46 0.46 0.48 0.48 0.48 0.48 0.48 0.48 0.48 0.48 0.46 0.46 0.46 0.46 0.46 0.44 0.44 0.44 0.44 0.44 0.44 0.44 0.42 0.42 0.42 0.42 0.40 0.40 0.38 0.36 0.36 0.34 0.32 0.30 0.30 0.28 0.28 0.26 0.26 0.26 0.24 0.24 0.24 0.24 0.24 0.24 0.24 0.22 0.22 0.22 0.22 0.22 0.22 0.24 0.24 0.24 0.24 0.24 0.24 0.24 0.24 0.24
0.44 0.44 0.44 0.46 0.46 0.46 0.46 0.48 0.48 0.48 0.48 0.48 0.48 0.48 0.48 0.48 0.48 0.48 0.48 0.46 0.46 0.44 0.44 0.44 0.44 0.44 0.44 0.44 0.42 0.42 0.42 0.42 0.40 0.38 0.38 0.36 0.34 0.32 0.30 0.30 0.28 0.28 0.26 0.26 0.26 0.26 0.24 0.24 0.24 0.24 0.24 0.24 0.24 0.22 0.22 0.22 0.22 0.22 0.24 0.24 0.24 0.24 0.24 0.24 0.24 0.24 0.24 0.22 0.22
0.44 0.44 0.46 0.46 0.46 0.48 0.48 0.50 0.48 0.48 0.48 0.48 0.48 0.48 0.48 0.48 0.48 0.48 0.46 0.44 0.44 0.44 0.44 0.44 0.44 0.44 0.42 0.42 0.40 0.40 0.40 0.38 0.36 0.36 0.34 0.34 0.32 0.30 0.30 0.28 0.26 0.26 0.26 0.26 0.24 0.24 0.24 0.24 0.24 0.24 0.24 0.24 0.22 0.22 0.22 0.22 0.22 0.22 0.22 0.22 0.24 0.22 0.22 0.22 0.22 0.22 0.22 0.22 0.22
0.46 0.46 0.46 0.48 0.48 0.50 0.50 0.50 0.48 0.48 0.48 0.48 0.48 0.48 0.48 0.48 0.48 0.48 0.46 0.44 0.44 0.44 0.44 0.44 0.42 0.42 0.42 0.40 0.40 0.38 0.36 0.34 0.34 0.32 0.32 0.30 0.30 0.28 0.28 0.26 0.26 0.26 0.26 0.24 0.24 0.24 0.24 0.24 0.24 0.22 0.22 0.22 0.22 0.22 0.22 0.22 0.22 0.22 0.22 0.22 0.22 0.22 0.22 0.22 0.22 0.22 0.22 0.22 0.22
0.46 0.48 0.48 0.50 0.50 0.50 0.50 0.50 0.48 0.48 0.48 0.50 0.50 0.50 0.50 0.48 0.46 0.46 0.44 0.44 0.44 0.44 0.42 0.42 0.42 0.40 0.40 0.38 0.38 0.36 0.34 0.32 0.32 0.30 0.28 0.28 0.28 0.26 0.26 0.26 0.24 0.24 0.24 0.24 0.24 0.24 0.24 0.24 0.22 0.22 0.22 0.22 0.22 0.22 0.22 0.22 0.22 0.22 0.22 0.22 0.22 0.22 0.20 0.22 0.22 0.22 0.22 0.22 0.24
0.48 0.50 0.50 0.52 0.52 0.52 0.50 0.50 0.50 0.50 0.50 0.50 0.50 0.50 0.48 0.46 0.46 0.44 0.44 0.42 0.42 0.42 0.42 0.40 0.40 0.38 0.38 0.36 0.36 0.34 0.32 0.30 0.30 0.28 0.26 0.26 0.24 0.24 0.24 0.24 0.22 0.22 0.22 0.22 0.22 0.22 0.22 0.22 0.22 0.22 0.22 0.20 0.20 0.20 0.20 0.20 0.20 0.20 0.20 0.20 0.20 0.20 0.20 0.20 0.22 0.22 0.22 0.24 0.24
0.50 0.52 0.52 0.52 0.52 0.52 0.52 0.52 0.52 0.52 0.50 0.50 0.48 0.48 0.46 0.44 0.44 0.44 0.42 0.42 0.42 0.42 0.40 0.40 0.38 0.38 0.36 0.34 0.34 0.32 0.30 0.28 0.26 0.26 0.24 0.24 0.22 0.22 0.22 0.22 0.20 0.20 0.20 0.20 0.20 0.20 0.20 0.20 0.20 0.20 0.20 0.20 0.20 0.20 0.20 0.20 0.20 0.20 0.20 0.20 0.20 0.20 0.20 0.20 0.22 0.22 0.22 0.24 0.24
0.50 0.52 0.52 0.52 0.52 0.52 0.52 0.52 0.52 0.50 0.50 0.48 0.46 0.46 0.44 0.44 0.44 0.44 0.42 0.42 0.42 0.40 0.40 0.38 0.38 0.36 0.34 0.32 0.32 0.30 0.28 0.26 0.24 0.24 0.22 0.22 0.22 0.20 0.20 0.20 0.20 0.18 0.20 0.20 0.20 0.20 0.20 0.18 0.18 0.18 0.18 0.18 0.18 0.18 0.20 0.20 0.20 0.20 0.20 0.20 0.22 0.22 0.22 0.22 0.22 0.24 0.24 0.24 0.26
0.50 0.52 0.52 0.52 0.52 0.52 0.52 0.52 0.50 0.48 0.46 0.46 0.44 0.44 0.44 0.44 0.44 0.44 0.44 0.42 0.40 0.40 0.38 0.36 0.36 0.34 0.32 0.32 0.30 0.28 0.26 0.24 0.22 0.22 0.22 0.20 0.20 0.18 0.18 0.18 0.18 0.18 0.18 0.18 0.18 0.18 0.18 0.18 0.18 0.18 0.18 0.18 0.18 0.20 0.20 0.20 0.20 0.20 0.20 0.22 0.22 0.22 0.24 0.24 0.24 0.24 0.24 0.24 0.26
0.50 0.52 0.52 0.52 0.50 0.50 0.50 0.48 0.46 0.44 0.44 0.44 0.44 0.44 0.44 0.44 0.44 0.44 0.44 0.42 0.40 0.38 0.36 0.36 0.34 0.32 0.30 0.30 0.28 0.26 0.24 0.24 0.22 0.20 0.20 0.18 0.18 0.16 0.16 0.16 0.16 0.18 0.18 0.18 0.18 0.18 0.16 0.16 0.18 0.18 0.18 0.20 0.20 0.20 0.20 0.22 0.22 0.22 0.22 0.24 0.24 0.24 0.24 0.24 0.24 0.26 0.26 0.26 0.26
0.48 0.48 0.48 0.46 0.48 0.48 0.46 0.46 0.44 0.44 0.44 0.42 0.42 0.42 0.44 0.44 0.44 0.42 0.42 0.38 0.38 0.36 0.36 0.34 0.32 0.30 0.28 0.28 0.26 0.24 0.22 0.20 0.18 0.18 0.18 0.16 0.16 0.16 0.16 0.16 0.16 0.16 0.16 0.18 0.16 0.16 0.16 0.18 0.18 0.18 0.20 0.20 0.22 0.22 0.22 0.22 0.22 0.22 0.24 0.24 0.24 0.24 0.26 0.26 0.26 0.26 0.26 0.26 0.26
0.46 0.46 0.46 0.44 0.42 0.42 0.42 0.42 0.42 0.42 0.42 0.42 0.42 0.44 0.42 0.42 0.40 0.40 0.38 0.38 0.36 0.34 0.32 0.32 0.30 0.28 0.26 0.24 0.22 0.20 0.20 0.18 0.18 0.16 0.16 0.16 0.16 0.16 0.16 0.16 0.16 0.16 0.16 0.16 0.16 0.16 0.18 0.18 0.20 0.20 0.22 0.22 0.22 0.22 0.24 0.24 0.24 0.24 0.24 0.24 0.26 0.26 0.26 0.26 0.26 0.26 0.26 0.28 0.28
0.44 0.44 0.44 0.42 0.42 0.42 0.42 0.42 0.42 0.42 0.44 0.44 0.44 0.42 0.42 0.40 0.38 0.38 0.38 0.36 0.36 0.32 0.30 0.28 0.26 0.24 0.22 0.20 0.18 0.18 0.16 0.16 0.16 0.16 0.16 0.16 0.16 0.16 0.16 0.16 0.16 0.16 0.16 0.16 0.16 0.18 0.18 0.20 0.20 0.22 0.22 0.22 0.24 0.24 0.24 0.24 0.24 0.24 0.26 0.26 0.26 0.26 0.28 0.28 0.28 0.28 0.28 0.28 0.30
0.44 0.44 0.42 0.42 0.42 0.42 0.42 0.42 0.44 0.44 0.44 0.42 0.40 0.40 0.38 0.38 0.36 0.36 0.34 0.34 0.32 0.30 0.26 0.24 0.22 0.20 0.18 0.18 0.16 0.16 0.16 0.16 0.16 0.16 0.16 0.16 0.16 0.16 0.16 0.16 0.16 0.16 0.16 0.18 0.18 0.20 0.20 0.20 0.22 0.22 0.22 0.22 0.24 0.24 0.24 0.24 0.24 0.26 0.26 0.26 0.28 0.28 0.28 0.30 0.30 0.30 0.30 0.30 0.32
0.44 0.44 0.42 0.42 0.44 0.44 0.44 0.44 0.42 0.42 0.40 0.38 0.38 0.38 0.36 0.36 0.34 0.34 0.32 0.32 0.30 0.26 0.22 0.20 0.18 0.18 0.16 0.16 0.16 0.16 0.16 0.16 0.16 0.16 0.16 0.16 0.16 0.14 0.14 0.14 0.16 0.16 0.18 0.18 0.20 0.20 0.20 0.20 0.22 0.22 0.22 0.22 0.24 0.24 0.24 0.24 0.26 0.26 0.28 0.28 0.28 0.30 0.30 0.30 0.30 0.30 0.32 0.32 0.32
0.44 0.44 0.44 0.44 0.44 0.44 0.44 0.42 0.40 0.38 0.38 0.36 0.36 0.36 0.34 0.34 0.32 0.32 0.30 0.28 0.26 0.22 0.18 0.18 0.16 0.16 0.16 0.16 0.16 0.16 0.16 0.16 0.16 0.16 0.16 0.14 0.14 0.14 0.14 0.14 0.16 0.16 0.18 0.20 0.20 0.20 0.20 0.22 0.22 0.22 0.22 0.24 0.24 0.26 0.26 0.26 0.28 0.28 0.28 0.30 0.30 0.30 0.30 0.30 0.30 0.32 0.32 0.32 0.32
0.46 0.46 0.44 0.44 0.44 0.42 0.40 0.38 0.36 0.36 0.36 0.36 0.34 0.34 0.32 0.30 0.30 0.28 0.26 0.24 0.22 0.20 0.18 0.16 0.16 0.16 0.16 0.16 0.16 0.16 0.16 0.16 0.16 0.14 0.14 0.14 0.14 0.14 0.14 0.16 0.16 0.18 0.18 0.20 0.20 0.20 0.20 0.22 0.22 0.22 0.22 0.24 0.24 0.26 0.28 0.28 0.28 0.30 0.30 0.30 0.30 0.30 0.30 0.30 0.32 0.32 0.32 0.32 0.32
0.44 0.42 0.42 0.40 0.40 0.38 0.36 0.36 0.36 0.36 0.34 0.34 0.32 0.32 0.30 0.28 0.26 0.24 0.22 0.20 0.18 0.16 0.16 0.16 0.16 0.16 0.16 0.16 0.16 0.16 0.14 0.14 0.14 0.14 0.14 0.14 0.14 0.14 0.16 0.16 0.18 0.18 0.20 0.20 0.20 0.20 0.20 0.22 0.22 0.22 0.24 0.26 0.26 0.26 0.28 0.28 0.30 0.30 0.30 0.30 0.30 0.30 0.30 0.32 0.32 0.32 0.32 0.32 0.34
0.40 0.40 0.38 0.38 0.38 0.36 0.36 0.34 0.34 0.34 0.32 0.32 0.30 0.28 0.26 0.24 0.22 0.20 0.18 0.18 0.18 0.16 0.16 0.16 0.16 0.16 0.16 0.16 0.14 0.14 0.14 0.14 0.14 0.14 0.14 0.14 0.16 0.16 0.16 0.18 0.18 0.18 0.20 0.20 0.20 0.20 0.22 0.22 0.22 0.24 0.26 0.26 0.26 0.28 0.28 0.30 0.30 0.30 0.30 0.30 0.30 0.30 0.30 0.32 0.32 0.32 0.32 0.34 0.34
0.40 0.40 0.38 0.38 0.36 0.36 0.34 0.34 0.32 0.32 0.30 0.28 0.26 0.24 0.22 0.20 0.18 0.18 0.18 0.18 0.18 0.16 0.16 0.16 0.16 0.16 0.14 0.14 0.14 0.14 0.14 0.14 0.14 0.14 0.16 0.16 0.16 0.18 0.18 0.18 0.18 0.18 0.20 0.20 0.20 0.22 0.22 0.22 0.24 0.26 0.26 0.28 0.28 0.28 0.30 0.30 0.30 0.30 0.30 0.30 0.30 0.30 0.30 0.32 0.32 0.32 0.32 0.34 0.34
0.40 0.38 0.36 0.36 0.34 0.34 0.32 0.32 0.30 0.28 0.26 0.24 0.22 0.20 0.20 0.18 0.18 0.18 0.18 0.18 0.18 0.16 0.16 0.16 0.16 0.14 0.14 0.14 0.14 0.14 0.14 0.14 0.14 0.16 0.16 0.16 0.18 0.18 0.18 0.18 0.18 0.18 0.18 0.20 0.20 0.22 0.22 0.24 0.26 0.26 0.26 0.28 0.28 0.30 0.30 0.30 0.30 0.30 0.28 0.30 0.30 0.30 0.30 0.32 0.32 0.32 0.32 0.32 0.32
Wind_Speed
40 40 40 40 41 40 40 39 39 38 38 37 37 37 37 36 35 34 34 33 32 32 32 32 32 32 32 32 33 33 34 34 34 35 35 35 35 36 37 39 40 41 43 44 44 44 44 43 42 41 41 41 41 41 40 40 40 40 40 39 39 39 40 40 40 40 40 39 39
40 40 40 40 40 39 39 38 37 37 36 36 36 36 36 35 35 34 33 33 32 32 32 32 32 32 32 33 33 34 34 35 35 35 35 35 36 38 39 40 42 43 44 44 44 43 42 41 41 41 41 41 41 41 40 40 40 39 39 39 39 39 40 40 40 40 40 40 39
41 40 40 40 39 38 37 36 36 35 35 35 35 35 35 34 34 33 33 32 32 32 32 32 32 32 33 33 34 35 35 35 35 35 35 36 38 39 41 42 43 44 44 43 42 42 41 41 40 40 41 41 40 40 40 40 39 39 39 39 39 39 40 40 40 40 40 40 40
41 41 40 40 39 38 36 36 35 35 34 34 34 34 34 34 33 33 33 32 32 31 31 32 32 33 33 34 35 35 35 35 35 35 36 38 40 41 42 43 43 42 42 41 41 40 40 40 40 40 40 40 40 40 39 39 39 38 39 39 39 39 40 40 40 40 40 40 39
42 42 41 40 39 37 36 36 35 34 34 34 33 33 33 33 33 32 32 32 31 31 32 32 33 34 34 35 35 35 35 35 36 36 38 39 41 41 42 42 41 41 40 40 40 40 40 40 40 40 40 40 39 39 39 38 38 39 39 39 39 39 40 40 40 40 40 40 39
43 42 41 40 39 37 36 36 35 34 33 33 33 32 32 33 32 32 32 32 32 32 32 33 34 34 35 35 36 36 36 36 36 37 38 39 40 40 40 40 39 39 39 40 40 40 40 40 40 40 39 39 39 39 39 38 39 39 39 40 40 40 40 40 40 40 40 39 39
42 42 41 40 38 37 36 36 35 34 33 32 32 32 32 32 32 32 32 32 32 33 33 34 35 35 36 36 36 36 36 36 37 37 38 39 39 39 39 39 39 39 39 40 40 40 40 40 39 39 39 39 39 39 39 39 39 40 40 40 41 40 40 40 40 40 39 39 39
42 41 40 39 38 37 36 35 35 34 33 32 31 31 31 31 31 31 32 32 32 33 33 34 35 35 36 36 36 36 36 36 37 38 38 39 38 38 38 39 39 39 39 40 40 40 39 39 39 39 39 39 39 39 39 40 40 40 41 41 41 41 40 40 40 40 39 39 39
41 40 39 37 37 36 35 34 34 33 33 32 31 31 31 31 31 31 31 32 32 33 34 34 35 36 36 36 36 36 36 36 37 38 38 38 38 38 38 39 39 39 39 39 39 39 39 38 38 38 39 39 39 40 40 40 41 41 41 41 41 41 40 40 40 40 40 40 40
39 38 37 36 35 34 34 33 33 33 32 32 32 31 31 31 31 32 32 32 33 33 34 34 35 36 36 36 36 36 36 36 37 37 37 37 38 38 39 39 39 39 39 38 38 38 38 38 38 38 39 39 40 40 40 41 41 41 41 41 41 41 41 41 41 41 41 41 41
37 36 35 34 34 33 33 33 32 32 32 32 32 32 32 32 32 32 33 33 33 34 34 34 35 35 35 35 35 35 35 35 35 36 36 37 37 38 38 38 38 38 38 37 37 37 37 38 38 39 39 40 40 40 41 41 41 41 41 41 41 41 41 41 41 41 41 42 42
35 35 34 33 33 32 32 32 32 32 32 32 32 32 32 32 33 33 33 34 34 34 34 34 34 34 34 34 34 34 34 34 35 35 36 36 37 37 37 37 37 37 37 37 37 37 38 38 39 39 40 40 40 40 40 41 41 41 41 42 41 42 42 42 42 42 42 42 42
34 33 33 32 32 32 32 32 33 33 33 33 33 33 33 33 34 34 34 34 34 34 34 33 33 32 32 32 32 33 33 34 34 35 35 36 36 36 36 36 36 36 36 37 37 37 38 38 39 39 40 40 40 40 41 41 41 41 42 42 42 42 42 42 42 42 42 42 43
33 33 32 32 32 32 33 33 33 33 33 33 34 34 34 34 34 34 34 34 34 33 33 32 32 31 31 31 32 32 33 34 34 34 35 35 35 35 35 36 36 36 37 37 37 37 38 38 39 39 40 40 41 41 41 41 41 42 42 42 42 42 42 43 43 43 43 43 43
33 32 32 32 33 33 33 33 33 33 33 34 34 34 35 35 35 34 34 33 33 32 31 31 31 31 31 31 32 32 33 33 34 34 34 35 35 35 35 36 36 36 37 37 37 38 38 39 40 40 41 41 41 41 42 42 42 42 42 42 43 43 43 43 43 43 43 43 43
32 32 32 33 33 33 34 34 34 34 34 34 35 35 35 35 34 34 33 32 32 31 31 30 30 31 31 31 32 32 33 33 33 34 34 35 35 35 36 36 36 37 37 38 38 39 39 40 40 41 41 41 42 42 42 42 42 42 43 43 43 43 43 43 43 43 43 43 43
32 33 33 33 34 34 34 34 34 35 35 35 35 35 35 34 33 33 32 31 31 30 30 30 30 30 31 31 32 32 32 33 33 34 34 35 35 35 36 36 37 37 38 38 39 40 40 40 41 41 41 42 42 42 42 42 43 43 43 43 43 44 44 44 44 44 44 44 44
33 33 34 34 34 35 35 35 35 35 36 36 36 35 34 33 32 32 31 30 30 30 30 30 30 30 31 31 32 32 32 33 33 34 34 35 35 36 36 37 37 38 38 39 40 40 41 41 41 42 42 42 42 42 43 43 43 43 43 44 44 44 44 44 44 44 44 44 44
34 34 34 35 35 35 36 36 36 36 36 36 35 35 33 32 31 30 30 30 30 29 30 30 30 31 31 31 32 32 32 33 33 34 34 35 35 36 36 37 38 39 39 40 41 41 42 42 42 42 42 42 42 43 43 43 43 43 43 44 44 44 44 44 44 44 44 44 44
34 35 35 36 36 36 36 36 36 36 36 36 35 33 32 31 30 30 30 30 30 30 30 30 30 31 31 31 31 32 32 33 33 34 35 35 36 37 37 38 39 40 40 41 41 42 42 42 42 42 42 42 43 43 43 43 43 43 43 43 43 44 44 44 44 44 44 44 44
35 35 36 36 36 36 36 36 36 36 35 34 33 32 31 30 30 30 30 30 30 30 30 30 30 30 31 31 32 32 33 33 34 35 35 36 37 38 38 39 40 41 41 41 42 42 42 42 42 42 42 42 43 43 43 43 43 43 43 43 43 44 44 43 43 43 43 43 43
35 36 36 36 36 36 36 37 36 36 34 33 32 31 31 31 31 31 30 30 30 29 29 29 30 30 31 31 32 33 33 34 35 35 36 37 38 39 39 40 41 41 41 41 41 42 42 42 42 42 42 42 43 43 43 43 43 44 44 44 44 44 44 43 43 43 42 42 41
35 35 35 36 36 37 37 37 36 34 33 32 31 31 31 31 31 31 30 29 29 29 29 29 30 30 31 32 32 33 34 35 36 36 37 38 39 39 40 40 41 41 41 41 41 41 41 42 42 42 42 42 43 43 43 43 44 44 44 44 44 43 43 43 42 41 41 40 40
35 36 36 36 37 37 36 35 34 33 32 32 32 32 31 31 31 30 29 28 28 28 29 29 30 31 32 32 33 34 35 36 37 37 38 39 39 40 40 40 40 40 41 41 41 41 41 41 42 42 42 42 43 43 43 43 43 43 43 43 43 42 42 41 40 39 38 38 37
35 36 36 37 37 36 35 34 33 33 32 32 32 32 31 30 29 29 28 28 28 28 29 30 31 32 32 33 34 35 36 36 37 38 39 39 39 40 40 40 40 40 40 40 41 41 41 41 42 42 42 42 43 43 43 43 43 42 42 42 41 40 40 39 38 37 36 36 35
35 36 37 37 37 36 35 34 33 33 32 32 31 30 30 29 28 28 28 28 28 29 30 31 32 32 33 34 35 35 36 37 37 38 39 39 39 40 40 40 40 40 40 40 41 41 41 42 42 42 42 42 43 43 43 42 42 41 41 40 39 38 37 37 36 35 35 34 34
36 37 37 37 37 36 35 34 33 32 31 30 29 29 28 28 28 28 28 28 29 30 31 32 33 33 34 35 35 36 37 37 38 38 39 39 39 39 40 40 40 40 40 40 41 41 41 42 42 43 43 43 43 42 42 42 41 40 39 38 37 36 36 35 34 34 33 33 33
37 37 38 37 36 35 34 32 31 30 29 28 28 27 27 27 28 28 28 29 30 31 32 33 34 34 35 35 36 37 37 38 38 39 39 39 39 39 39 39 39 40 40 40 41 41 42 42 43 43 43 43 42 42 41 40 39 38 37 36 35 34 34 33 33 33 32 32 32
37 37 37 36 34 33 31 30 29 28 27 27 27 27 27 28 28 29 29 30 32 33 34 34 35 35 36 36 37 37 38 38 38 39 39 39 39 39 39 39 40 40 40 41 41 42 42 43 43 43 43 42 41 40 39 38 37 36 35 34 33 33 32 32 32 32 32 32 31
37 36 35 33 32 30 29 28 27 27 27 26 27 27 27 28 29 29 30 32 33 34 34 35 35 36 36 37 37 38 38 38 38 38 39 39 39 39 39 39 40 40 41 41 42 42 43 43 43 42 41 40 39 38 37 36 35 34 33 33 32 32 32 32 32 32 32 31 31
35 34 33 31 30 28 28 27 27 27 26 27 27 27 28 28 29 30 32 33 34 35 35 36 36 37 37 37 38 38 38 38 38 38 39 39 39 39 40 40 40 40 41 41 42 42 42 42 41 40 39 38 37 36 35 34 33 33 32 32 32 32 32 32 31 30 30 29 29
33 32 30 29 28 27 27 27 26 26 27 27 27 28 29 30 31 32 33 34 35 35 36 36 37 37 38 38 38 38 38 38 38 39 39 39 39 39 40 40 40 40 41 41 42 41 41 40 39 38 37 36 35 34 33 33 32 32 32 32 31 31 30 29 28 28 27 27 26
31 30 28 27 27 27 26 26 26 26 27 27 28 29 30 31 32 33 34 35 35 36 36 37 37 38 38 38 38 38 38 38 39 39 39 39 39 39 40 40 40 40 41 41 41 40 40 39 38 37 36 35 34 33 33 32 32 31 30 30 29 28 28 27 26 26 26 26 26
29 28 27 26 26 26 26 26 26 27 27 28 29 30 31 32 33 34 35 35 36 36 37 37 37 38 38 38 38 38 38 39 39 39 39 39 39 39 40 40 40 40 40 40 40 39 38 37 36 36 35 34 33 32 32 31 30 29 28 28 27 26 26 26 26 26 26 26 26
28 27 26 26 26 26 26 26 27 27 28 29 30 31 32 33 34 35 35 36 36 37 37 38 38 38 38 38 38 38 38 38 38 38 39 39 39 39 40 40 40 40 39 39 38 37 37 36 35 35 34 33 32 30 30 29 28 27 27 27 26 26 26 26 26 26 27 27 27
27 26 26 26 26 26 27 27 28 28 29 30 31 32 33 34 34 35 36 36 37 38 38 38 38 38 38 38 38 38 38 38 38 38 39 39 39 39 40 40 39 39 38 38 37 36 36 35 34 34 33 31 29 28 28 27 27 27 26 26 26 26 26 26 27 27 27 27 27
26 25 25 25 26 26 27 28 29 30 31 32 33 33 34 34 35 36 37 37 38 38 38 38 38 38 37 37 37 38 38 38 38 38 39 39 39 39 39 39 38 38 37 36 36 35 35 34 33 32 30 29 28 27 27 27 26 26 26 26 26 26 26 27 27 27 27 27 27
24 24 24 25 26 28 29 30 31 32 32 33 33 34 34 35 36 37 37 38 38 38 38 38 37 37 37 37 37 37 38 38 38 38 39 39 39 39 38 38 37 36 36 35 35 34 33 32 31 30 29 28 27 27 27 27 26 26 26 26 26 26 26 26 27 27 27 27 27
23 24 26 27 29 30 31 32 32 32 33 33 34 35 35 36 37 37 38 38 37 37 37 37 37 37 37 37 37 37 37 38 38 38 38 38 38 38 37 36 36 35 34 34 33 33 32 31 30 29 28 27 27 27 26 26 26 26 25 25 25 26 26 26 26 26 26 27 27
26 27 28 30 31 32 32 32 33 33 33 34 35 36 36 37 37 37 37 37 37 37 37 37 37 37 37 37 37 37 37 38 38 38 38 37 37 36 36 35 34 34 33 33 32 31 30 29 29 28 28 27 26 26 26 25 25 25 25 24 25 25 25 25 25 25 25 26 26
28 29 30 31 32 32 33 33 33 34 34 35 36 36 37 37 37 37 37 36 36 36 36 36 37 37 37 37 37 37 37 38 38 37 37 36 36 35 34 33 33 33 32 31 31 30 29 28 28 28 27 26 26 25 25 25 24 24 24 24 24 24 25 25 25 25 25 26 27
Wind_Direction
307 306 305 305 304 302 300 297 294 291 289 287 287 286 287 287 287 286 285 284 283 282 281 281 282 282 282 282 281 280 280 280 280 280 280 279 279 279 281 282 284 285 285 285 285 285 285 285 284 284 283 283 283 283 283 283 283 283 283 283 283 283 283 283 283 283 283 283 283
307 306 306 305 305 304 301 298 295 292 290 289 288 288 288 288 288 287 287 286 284 283 282 282 283 283 283 282 282 281 280 281 282 281 280 279 280 281 282 284 285 286 286 286 286 285 285 284 284 284 284 283 283 283 283 283 284 283 283 283 283 283 283 283 283 283 283 283 283
307 306 306 306 305 304 302 300 297 295 293 291 290 290 290 289 289 288 288 287 286 285 284 284 284 284 283 283 283 282 282 282 282 281 280 280 281 283 284 286 286 287 286 286 285 285 285 284 284 284 284 284 284 284 284 284 284 284 283 283 283 283 282 282 283 283 283 283 282
306 306 306 306 305 304 302 300 299 297 295 293 292 292 291 290 289 289 288 287 287 286 286 285 285 284 284 284 284 284 283 283 281 281 281 282 283 284 286 287 287 287 286 285 285 284 284 284 284 284 284 285 285 285 285 285 284 284 283 283 283 283 282 283 283 283 283 282 282
305 305 305 305 304 303 302 301 300 299 297 295 294 293 292 291 290 289 289 288 288 287 286 286 285 285 285 285 285 285 284 283 281 281 282 283 284 285 286 287 287 286 285 285 284 284 284 285 285 285 286 286 286 286 285 285 284 284 283 283 283 283 283 283 283 283 283 282 282
305 305 305 304 304 303 302 302 301 299 298 297 295 294 293 292 291 290 290 289 288 288 287 287 286 286 286 286 286 285 284 282 281 282 283 284 285 285 286 287 286 286 285 284 284 285 285 285 286 286 287 287 286 286 285 285 284 284 283 283 283 283 283 283 283 283 282 282 281
305 304 304 304 303 303 302 302 301 300 299 297 296 295 294 293 293 292 291 291 290 289 288 288 288 288 288 287 286 284 283 282 282 282 283 284 285 286 286 286 286 285 285 285 285 285 286 286 287 287 287 286 286 286 285 285 284 284 284 284 284 284 284 283 283 283 282 282 281
305 304 304 303 303 303 302 302 301 300 299 298 297 296 296 295 294 294 293 292 291 291 290 290 289 289 288 287 285 283 282 282 282 283 283 284 285 286 286 286 285 285 285 285 285 286 286 286 286 286 286 286 286 285 285 285 285 284 284 284 284 284 284 284 284 283 283 282 282
305 305 304 304 303 303 302 301 301 300 299 298 298 297 297 296 295 295 294 293 292 291 291 291 290 289 287 285 284 283 283 283 283 283 284 285 285 286 286 285 285 285 285 285 285 285 285 286 286 286 286 286 286 286 286 286 285 285 285 285 285 285 284 284 284 283 283 282 282
306 305 305 305 304 303 302 301 301 300 300 299 299 298 298 297 296 295 294 293 292 292 292 291 290 289 287 285 284 284 284 284 284 284 285 285 285 285 285 285 285 285 285 285 285 285 285 286 286 286 286 286 286 286 286 286 286 286 286 286 285 285 285 284 284 283 283 282 281
306 306 306 305 305 304 303 302 301 301 301 300 300 299 299 298 297 296 295 294 293 293 292 291 290 289 287 286 285 285 284 284 285 285 285 285 285 285 285 286 286 286 286 286 286 286 286 286 286 287 287 287 287 287 287 287 287 286 286 286 286 285 285 284 284 283 283 282 281
307 306 306 306 305 305 304 303 303 303 302 302 302 301 301 300 299 298 297 296 295 294 293 292 291 290 288 287 286 285 285 285 285 285 286 286 286 287 287 287 287 287 287 287 287 287 287 287 287 288 288 288 288 288 288 288 287 287 287 286 286 285 285 284 284 283 282 282 281
307 307 306 306 306 305 305 305 305 304 304 304 304 304 303 302 301 299 298 297 296 295 294 293 292 290 289 287 286 286 285 286 286 287 287 287 287 287 287 287 287 287 287 288 288 288 288 289 289 289 289 289 289 289 289 289 288 288 287 287 286 286 285 284 284 283 283 282 282
307 306 306 306 306 306 306 306 306 306 306 306 306 305 304 303 302 301 299 298 297 296 295 294 293 291 289 288 287 287 287 288 288 288 288 288 288 288 288 288 288 288 289 289 289 290 290 290 290 291 291 291 291 290 290 289 289 288 288 287 287 286 286 285 285 284 284 283 283
307 306 306 306 306 306 306 306 307 307 307 307 306 305 304 303 302 301 301 299 298 297 296 295 293 292 291 290 289 289 289 289 289 289 289 289 289 289 289 289 289 289 290 290 291 291 291 292 292 292 292 292 291 291 290 290 289 288 288 287 287 287 286 286 286 285 285 284 284
307 306 306 306 306 306 306 307 307 307 307 306 305 305 304 304 303 302 301 300 299 298 297 295 294 293 293 292 292 291 291 290 290 290 289 290 290 290 290 290 290 291 291 292 292 293 293 293 293 293 293 292 292 291 291 290 289 289 288 288 288 287 287 287 286 286 285 285 284
307 307 306 306 307 307 307 308 308 307 307 306 305 304 304 304 303 303 302 301 300 299 298 297 296 295 294 293 293 292 291 291 290 290 290 291 291 291 291 291 291 292 293 293 294 294 294 294 294 293 293 292 292 291 291 290 290 289 289 288 288 288 287 287 286 286 286 285 285
307 307 307 308 308 308 309 309 308 308 307 306 305 304 304 304 303 303 302 301 300 299 298 297 297 296 295 294 293 292 292 291 291 291 291 292 292 292 292 293 293 294 294 295 295 295 295 295 294 294 293 292 292 291 291 290 290 290 289 289 288 288 288 287 287 286 286 285 285
308 308 309 309 310 310 310 309 308 307 306 305 304 304 304 304 303 303 302 301 300 300 299 298 297 296 295 294 293 293 293 292 292 293 293 293 293 293 294 294 295 295 296 296 296 295 295 295 294 294 293 292 292 292 291 291 290 290 290 289 289 288 288 288 287 287 286 285 285
309 309 310 310 310 310 310 309 308 307 306 305 305 305 305 305 304 303 302 301 301 300 299 297 296 296 295 294 294 294 294 294 294 294 294 295 295 295 296 296 296 296 296 296 296 296 295 295 294 294 293 293 292 292 292 291 291 291 290 290 289 289 289 288 288 287 286 286 285
310 310 311 311 311 310 310 309 308 307 306 306 307 306 306 304 303 302 302 301 300 299 298 297 296 296 295 295 295 295 295 296 296 296 296 297 297 297 297 297 297 297 297 297 296 296 295 295 294 294 294 293 293 292 292 292 292 291 291 291 290 290 289 289 288 287 286 286 285
311 311 311 311 311 310 310 309 308 307 307 307 307 306 305 303 303 302 301 301 300 299 298 297 297 297 297 297 297 297 297 298 298 298 298 298 298 298 298 298 298 298 297 297 297 296 296 295 295 294 294 294 293 293 293 293 292 292 292 291 291 290 290 289 288 287 286 285 284
311 311 311 311 311 310 310 309 308 308 308 307 306 305 303 303 302 302 301 300 299 298 298 298 298 298 298 298 299 299 299 299 299 299 299 299 299 299 299 299 298 298 298 297 297 297 296 296 295 295 295 294 294 294 294 294 294 293 293 292 292 291 290 289 288 287 286 285 284
312 312 312 311 311 310 310 309 309 308 307 305 304 304 303 302 302 301 300 299 298 298 298 299 300 300 300 300 301 301 301 301 301 300 300 300 300 300 300 299 299 298 298 298 297 297 297 296 296 296 296 296 296 295 295 295 295 295 294 293 293 292 291 289 288 287 285 284 283
313 312 312 312 311 311 310 309 308 307 305 304 304 303 302 302 301 300 299 298 298 298 299 301 302 302 302 303 303 302 302 302 302 301 301 301 301 300 300 300 299 299 299 298 298 297 297 297 297 297 297 297 297 297 297 297 296 296 295 294 293 292 291 290 288 287 285 284 283
313 313 312 312 311 310 309 308 306 305 304 304 303 302 302 301 300 299 299 298 299 300 302 303 304 304 304 304 304 304 303 303 303 302 302 302 302 301 301 300 300 300 299 299 299 298 298 298 298 299 299 299 299 298 298 297 297 296 295 294 293 292 291 290 288 287 286 285 284
312 312 312 311 310 309 307 306 305 305 304 303 303 302 301 301 300 299 299 300 301 303 304 306 306 306 306 305 305 304 304 304 304 303 303 302 302 302 301 301 301 301 300 300 300 300 300 300 300 300 300 299 299 299 298 297 297 296 295 294 293 291 290 289 288 287 286 286 285
312 312 311 310 309 307 306 305 305 304 304 303 303 302 301 301 300 300 301 303 304 306 307 307 307 307 306 306 305 305 305 304 304 304 303 303 302 302 302 302 302 302 302 301 301 301 301 301 301 300 300 300 299 299 298 297 296 295 294 293 292 291 290 289 289 288 287 286 285
311 310 310 309 307 306 306 305 305 304 304 304 303 302 302 302 302 303 305 307 308 308 308 308 307 307 306 306 306 306 305 305 305 304 304 304 303 303 303 303 303 303 302 302 302 302 302 301 301 301 301 300 299 298 297 297 296 295 294 293 292 291 291 290 289 288 287 286 285
310 309 308 307 307 306 306 305 305 305 304 304 303 303 303 304 305 307 308 309 309 309 308 307 307 307 307 306 306 306 306 306 305 305 305 305 304 304 304 304 304 304 303 303 303 303 302 302 302 302 301 300 299 298 297 296 295 295 294 293 292 292 291 290 289 288 287 286 285
309 308 307 307 306 306 306 306 305 305 304 304 304 304 305 307 308 309 309 309 308 308 307 307 307 307 307 307 307 307 307 306 306 306 306 305 305 305 305 305 305 304 304 304 304 303 303 303 303 302 301 300 299 298 297 296 295 295 294 293 293 292 291 290 289 288 287 286 285
308 307 307 307 307 307 307 306 305 305 305 305 306 307 308 309 309 309 309 308 308 308 308 308 308 308 308 308 308 308 307 307 307 307 306 306 306 306 306 305 305 305 305 305 305 304 304 304 303 302 302 301 300 298 297 297 296 295 294 293 293 292 291 290 289 288 287 286 286
308 308 307 307 307 307 306 306 306 306 306 307 308 309 310 309 309 308 308 308 308 308 308 309 309 309 309 309 309 308 308 308 307 307 307 307 307 307 306 306 306 306 306 306 305 305 305 304 304 303 302 301 300 299 298 297 296 295 295 294 293 292 291 290 289 288 287 287 287
309 308 308 307 307 307 306 307 307 307 308 309 310 310 309 308 308 308 308 308 309 309 309 310 310 310 309 309 309 309 308 308 308 308 308 308 307 307 307 307 307 307 307 306 306 306 305 305 304 303 302 302 301 300 299 298 297 296 295 294 293 292 291 290 289 288 288 288 288
309 308 307 306 306 306 307 308 308 309 309 310 309 309 308 308 308 308 309 309 310 310 310 310 310 310 310 309 309 309 309 309 309 308 308 308 308 308 308 308 308 307 307 307 307 306 306 305 304 304 303 302 301 300 299 298 297 296 295 294 293 292 291 290 290 289 289 289 288
308 307 306 306 306 307 308 309 309 310 310 309 308 308 308 309 309 310 310 311 311 311 311 311 311 310 310 310 310 309 309 309 309 309 309 309 309 309 309 308 308 308 307 307 307 307 306 306 305 304 304 303 302 301 300 299 298 297 295 294 293 292 291 291 291 291 290 290 289
308 307 307 308 308 309 310 310 310 310 310 309 309 309 310 310 311 311 311 311 311 311 311 311 311 311 310 310 310 310 310 310 310 310 310 310 310 310 309 309 308 308 308 307 307 307 307 306 306 305 304 304 303 302 301 300 298 297 295 294 293 292 292 292 292 291 291 290 289
311 311 311 311 311 311 311 311 311 310 310 310 310 311 311 311 311 312 312 312 312 312 312 311 311 311 310 310 310 310 310 310 310 311 311 311 310 310 310 309 308 308 308 308 308 308 307 307 306 306 305 304 304 303 301 300 298 296 295 294 293 293 293 293 293 292 290 289 288
315 315 314 313 313 313 312 312 311 311 311 311 312 312 312 312 312 312 312 312 312 312 312 311 311 311 311 311 311 311 311 311 311 312 312 311 311 310 310 309 309 308 308 308 309 308 308 308 307 307 306 305 304 303 301 299 297 296 295 294 294 294 294 294 293 292 291 290 289
315 315 314 313 313 312 312 312 312 312 312 312 313 312 312 312 312 312 313 313 312 312 312 311 311 311 311 311 311 311 312 312 312 312 312 312 311 311 310 309 309 309 309 309 309 309 309 308 308 308 307 306 304 303 301 299 297 296 295 295 295 295 295 295 295 294 293 292 291
314 313 313 312 312 312 312 312 312 313 313 313 313 313 313 313 313 313 313 313 312 312 312 312 312 312 312 312 312 312 313 313 313 313 313 312 311 311 310 309 309 309 309 310 310 310 309 309 309 308 308 306 305 303 301 299 298 297 296 296 296 297 297 297 297 296 295 294 293